Torna al catalogo

SL-12 DEB

LostHEO
NORAD 28582·DEBRIS·🇷🇺 Russia

Lanciato Jul 30, 1992 da Baikonur Cosmodrome

Loading…

Prossimi Passaggi (prossime 24 ore)

TLE

ObsoletoSource: Space-Track

Epoca: May 25, 2026, 01:13 UTC

1 28582U 92047R   26145.05094318 -.00000011  00000-0  00000-0 0  9998
2 28582  61.4851 151.8690 3478058 311.7190  23.3492  6.53581661505430

Traccia SL-12 DEB in tempo reale con AllMySat

Download on the App Store